TimeCEST,TemperatureF,Dew PointF,Humidity,Sea Level PressureIn,VisibilityMPH,Wind Direction,Wind SpeedMPH,Gust SpeedMPH,PrecipitationIn,Events,Conditions,WindDirDegrees,DateUTC
12:00 AM,68.0,53.6,60,29.98,6.2,SSW,15.0,-,N/A,,Scattered Clouds,210,2012-10-21 22:00:00
1:00 AM,68.0,57.2,68,29.98,6.2,SW,13.8,-,N/A,,Scattered Clouds,220,2012-10-21 23:00:00
1:30 AM,68.0,55.4,64,29.98,6.2,WSW,16.1,-,N/A,,Scattered Clouds,240,2012-10-21 23:30:00
2:00 AM,65,53,55,29.98,12,WSW,15.0,,,,Partly Cloudy,240,2012-10-22 00:00:00
2:00 AM,66.2,55.4,68,29.98,6.2,WSW,13.8,-,N/A,,Partly Cloudy,240,2012-10-22 00:00:00
2:30 AM,66.2,57.2,73,29.98,6.2,WSW,12.7,-,N/A,,Partly Cloudy,240,2012-10-22 00:30:00
3:00 AM,68.0,57.2,68,29.98,6.2,WSW,15.0,-,N/A,,Scattered Clouds,240,2012-10-22 01:00:00
3:30 AM,68.0,57.2,68,29.98,6.2,WSW,12.7,-,N/A,,Partly Cloudy,240,2012-10-22 01:30:00
4:00 AM,68.0,57.2,68,29.98,6.2,WSW,16.1,-,N/A,,Partly Cloudy,250,2012-10-22 02:00:00
4:30 AM,68.0,59.0,73,29.98,6.2,WSW,15.0,-,N/A,,Partly Cloudy,240,2012-10-22 02:30:00
5:00 AM,68.0,57.2,68,29.98,6.2,WSW,16.1,-,N/A,,Partly Cloudy,250,2012-10-22 03:00:00
5:30 AM,68.0,57.2,68,29.98,6.2,WSW,15.0,-,N/A,,Partly Cloudy,250,2012-10-22 03:30:00
6:30 AM,66.2,57.2,73,29.98,6.2,WSW,10.4,-,N/A,,Partly Cloudy,240,2012-10-22 04:30:00
7:00 AM,66.2,57.2,73,29.98,6.2,WSW,6.9,-,N/A,,Partly Cloudy,240,2012-10-22 05:00:00
7:30 AM,66.2,57.2,73,29.98,6.2,WSW,8.1,-,N/A,,Partly Cloudy,240,2012-10-22 05:30:00
8:00 AM,65,54,59,30.00,12,SW,10.4,,,,Scattered Clouds,230,2012-10-22 06:00:00
8:30 AM,60.8,57.2,88,30.01,6.2,West,4.6,-,N/A,,Partly Cloudy,280,2012-10-22 06:30:00
9:00 AM,62.6,57.2,82,30.01,6.2,Variable,1.2,-,N/A,,Partly Cloudy,0,2012-10-22 07:00:00
11:00 AM,68.0,59.0,73,30.04,6.2,West,8.1,-,N/A,Rain,Rain,260,2012-10-22 09:00:00
12:30 PM,71.6,59.0,64,30.04,6.2,SW,9.2,-,N/A,,Partly Cloudy,220,2012-10-22 10:30:00
2:00 PM,72,57,49,30.04,16,SW,15.0,,,,Scattered Clouds,230,2012-10-22 12:00:00
2:30 PM,71.6,60.8,69,30.01,6.2,SW,12.7,-,N/A,,Partly Cloudy,230,2012-10-22 12:30:00
4:30 PM,71.6,55.4,57,30.01,6.2,WSW,15.0,-,N/A,,Partly Cloudy,240,2012-10-22 14:30:00
5:00 PM,71.6,59.0,64,30.01,6.2,WSW,13.8,-,N/A,,Partly Cloudy,240,2012-10-22 15:00:00
5:30 PM,71.6,59.0,64,30.04,6.2,WSW,13.8,-,N/A,,Partly Cloudy,240,2012-10-22 15:30:00
6:00 PM,71.6,59.0,64,30.04,6.2,WSW,13.8,-,N/A,,Scattered Clouds,240,2012-10-22 16:00:00
6:30 PM,69.8,59.0,68,30.04,6.2,WSW,12.7,-,N/A,,Partly Cloudy,250,2012-10-22 16:30:00
7:00 PM,68.0,59.0,73,30.04,6.2,West,9.2,-,N/A,,Partly Cloudy,270,2012-10-22 17:00:00
7:30 PM,68.0,59.0,73,30.04,6.2,West,6.9,-,N/A,,Partly Cloudy,260,2012-10-22 17:30:00
8:00 PM,66,56,61,30.05,12,West,4.6,,,,Scattered Clouds,270,2012-10-22 18:00:00
8:00 PM,66.2,59.0,78,30.04,6.2,Variable,2.3,-,N/A,,Partly Cloudy,0,2012-10-22 18:00:00
8:30 PM,66.2,59.0,78,30.04,6.2,WSW,6.9,-,N/A,,Partly Cloudy,250,2012-10-22 18:30:00
9:00 PM,66.2,59.0,78,30.06,6.2,WNW,3.5,-,N/A,,Partly Cloudy,290,2012-10-22 19:00:00
9:30 PM,66.2,60.8,83,30.06,6.2,WSW,8.1,-,N/A,,Partly Cloudy,250,2012-10-22 19:30:00
10:00 PM,66.2,60.8,83,30.06,6.2,WSW,3.5,-,N/A,,Partly Cloudy,250,2012-10-22 20:00:00
10:30 PM,66.2,60.8,83,30.06,6.2,Calm,Calm,-,N/A,,Partly Cloudy,0,2012-10-22 20:30:00
11:00 PM,62.6,59.0,88,30.06,6.2,Calm,Calm,-,N/A,,Partly Cloudy,0,2012-10-22 21:00:00
11:30 PM,62.6,59.0,88,30.06,6.2,Variable,1.2,-,N/A,,Partly Cloudy,0,2012-10-22 21:30:00